TimeEDT,TemperatureF,Dew PointF,Humidity,Sea Level PressureIn,VisibilityMPH,Wind Direction,Wind SpeedMPH,Gust SpeedMPH,PrecipitationIn,Events,Conditions,WindDirDegrees,DateUTC
12:53 AM,37.9,28.9,70,30.11,10.0,SW,9.2,-,N/A,,Clear,220,2013-04-25 04:53:00
1:53 AM,37.0,28.0,70,30.09,10.0,SSW,8.1,-,N/A,,Clear,210,2013-04-25 05:53:00
2:53 AM,37.0,28.0,70,30.08,10.0,SSW,6.9,-,N/A,,Clear,200,2013-04-25 06:53:00
3:53 AM,37.0,28.9,73,30.07,10.0,SSW,6.9,-,N/A,,Clear,200,2013-04-25 07:53:00
4:53 AM,36.0,30.0,79,30.06,10.0,SSW,6.9,-,N/A,,Clear,200,2013-04-25 08:53:00
5:53 AM,37.0,30.0,76,30.06,10.0,SSW,9.2,-,N/A,,Clear,200,2013-04-25 09:53:00
6:53 AM,37.0,30.9,79,30.05,10.0,South,9.2,-,N/A,,Partly Cloudy,190,2013-04-25 10:53:00
8:53 AM,41.0,32.0,70,30.06,10.0,SSW,11.5,-,N/A,,Overcast,210,2013-04-25 12:53:00
9:45 AM,41.0,33.8,76,30.04,10.0,SW,18.4,25.3,0.00,Rain,Light Rain,230,2013-04-25 13:45:00
9:53 AM,39.9,32.0,73,30.06,10.0,SW,16.1,-,0.00,Rain,Light Rain,230,2013-04-25 13:53:00
10:07 AM,37.4,33.8,87,30.05,2.0,SW,16.1,28.8,0.02,Rain,Rain,230,2013-04-25 14:07:00
10:26 AM,37.4,32.0,81,30.05,5.0,SW,13.8,-,0.04,Rain,Light Rain,220,2013-04-25 14:26:00
10:34 AM,37.4,33.8,87,30.05,5.0,SW,9.2,-,0.04,Rain,Light Rain,220,2013-04-25 14:34:00
10:53 AM,37.9,32.0,79,30.08,10.0,SSW,9.2,-,0.04,,Overcast,210,2013-04-25 14:53:00
11:00 AM,39.2,32.0,75,30.06,10.0,SSW,10.4,-,N/A,,Overcast,210,2013-04-25 15:00:00
11:53 AM,41.0,32.0,70,30.09,10.0,SW,18.4,-,N/A,,Overcast,230,2013-04-25 15:53:00
12:15 PM,42.8,33.8,70,30.07,10.0,SW,16.1,24.2,0.00,Rain,Light Rain,230,2013-04-25 16:15:00
12:53 PM,44.1,33.1,65,30.09,10.0,WSW,17.3,26.5,0.00,,Overcast,240,2013-04-25 16:53:00
1:37 PM,44.6,33.8,66,30.09,10.0,West,17.3,25.3,0.01,Rain,Light Rain,280,2013-04-25 17:37:00
1:53 PM,46.9,33.1,59,30.11,10.0,West,17.3,23.0,0.01,,Scattered Clouds,280,2013-04-25 17:53:00
2:53 PM,48.9,32.0,52,30.13,10.0,West,20.7,31.1,0.00,,Mostly Cloudy,270,2013-04-25 18:53:00
3:53 PM,50.0,32.0,50,30.14,10.0,West,20.7,27.6,N/A,,Partly Cloudy,270,2013-04-25 19:53:00
4:53 PM,50.0,30.9,48,30.17,10.0,WNW,20.7,26.5,N/A,,Scattered Clouds,290,2013-04-25 20:53:00
5:53 PM,48.9,28.9,46,30.20,10.0,WNW,16.1,23.0,N/A,,Partly Cloudy,290,2013-04-25 21:53:00
6:53 PM,48.9,27.0,43,30.23,10.0,WNW,15.0,-,N/A,,Scattered Clouds,290,2013-04-25 22:53:00
7:53 PM,46.9,25.0,42,30.25,10.0,WNW,9.2,-,N/A,,Mostly Cloudy,290,2013-04-25 23:53:00
8:53 PM,43.0,27.0,53,30.27,10.0,West,6.9,-,N/A,,Partly Cloudy,280,2013-04-26 00:53:00
9:53 PM,43.0,25.0,49,30.30,10.0,WSW,5.8,-,N/A,,Clear,240,2013-04-26 01:53:00
10:53 PM,41.0,27.0,57,30.33,10.0,SW,5.8,-,N/A,,Clear,230,2013-04-26 02:53:00
11:53 PM,39.9,28.9,65,30.34,10.0,SW,4.6,-,N/A,,Clear,230,2013-04-26 03:53:00